• Processing (Info)

  • MPEC 2017-F39 : 2017 FG1

    The following Minor Planet Electronic Circular may be linked-to from your own Web pages, but must not otherwise be redistributed electronically.

    A form allowing access to any MPEC is at the bottom of this page.


    Read MPEC 2017-F38 Read MPEC 2017-F40


    M.P.E.C. 2017-F39                                Issued 2017 Mar. 20, 19:24 UT
    
         The Minor Planet Electronic Circulars contain information on unusual
             minor planets and routine data on comets.  They are published
        on behalf of Division F of the International Astronomical Union by the
              Minor Planet Center, Smithsonian Astrophysical Observatory,
                              Cambridge, MA 02138, U.S.A.
    
                 Prepared using the Tamkin Foundation Computer Network
    
                                  MPC@CFA.HARVARD.EDU
                URL https://www.minorplanetcenter.net/    ISSN 1523-6714
    
                                       2017 FG1
    
    Observations:
         K17F01G* C2017 03 18.31329 11 36 23.30 -01 39 02.9          19.9 VqEF039G96
         K17F01G  C2017 03 18.31995 11 36 16.86 -01 40 04.7          20.8 VqEF039G96
         K17F01G  C2017 03 18.32488 11 36 12.16 -01 40 50.0          19.6 VqEF039G96
         K17F01G  C2017 03 18.32977 11 36 07.48 -01 41 35.6          20.5 VqEF039G96
         K17F01G  C2017 03 18.40865 11 34 52.66 -01 53 39.8                qEF039G96
         K17F01G  C2017 03 18.40966 11 34 51.73 -01 53 48.7          20.2 VqEF039G96
         K17F01G  C2017 03 18.41090 11 34 50.57 -01 54 00.4          19.8 VqEF039G96
         K17F01G  C2017 03 18.41254 11 34 49.03 -01 54 15.2          20.2 VqEF039G96
         K17F01G KC2017 03 18.52290 11 33 15.25 -02 08 11.4          20.2 RtEF039474
         K17F01G KC2017 03 18.52471 11 33 13.53 -02 08 27.6          19.6 RtEF039474
         K17F01G KC2017 03 18.52653 11 33 11.86 -02 08 44.4          20.3 RtEF039474
         K17F01G KC2017 03 18.52834 11 33 10.16 -02 09 00.8          19.5 RtEF039474
         K17F01G  C2017 03 19.27823 11 22 35.33 -03 59 09.1          20.6 VqEF039G96
         K17F01G  C2017 03 19.28015 11 22 33.66 -03 59 25.1          20.4 VqEF039G96
         K17F01G  C2017 03 19.28107 11 22 32.88 -03 59 32.2          20.4 VqEF039G96
         K17F01G  C2017 03 19.28203 11 22 32.05 -03 59 40.6          20.7 VqEF039G96
         K17F01G  C2017 03 19.32196 11 22 03.935-04 04 41.21         20.5 wLEF039F51
         K17F01G  C2017 03 19.33396 11 21 53.720-04 06 19.24         20.5 wLEF039F51
         K17F01G  C2017 03 19.34598 11 21 43.505-04 07 57.10         20.5 wLEF039F51
         K17F01G  C2017 03 19.35795 11 21 33.358-04 09 33.96         20.7 wLEF039F51
         K17F01G  C2017 03 20.26640 11 10 01.24 -06 05 08.4          20.8 VqEF039G96
         K17F01G  C2017 03 20.26735 11 10 00.53 -06 05 15.4          20.7 VqEF039G96
         K17F01G  C2017 03 20.26926 11 09 59.06 -06 05 29.0          21.0 VqEF039G96
    
    Observer details:
    474 Mount John Observatory, Lake Tekapo.  Observers A. C. Gilmore,
        P. M. Kilmartin.  Measurer P. M. Kilmartin.  1.0-m f/7.7 reflector + CCD.
    F51 Pan-STARRS 1, Haleakala.  Observers B. Gibson, T. Goggia, S. Kahale,
        T. Lowe, A. Schultz, M. Willman.  Measurers K. Chambers, S. Chastel,
        L. Denneau, H. Flewelling, M. Huber, E. Lilly, E. Magnier, R. Wainscoat,
        C. Waters, R. Weryk.  1.8-m Ritchey-Chretien + CCD.
    G96 Mt. Lemmon Survey.  Observer G. J. Leonard.  Measurers E. J. Christensen,
        D. C. Fuls, A. R. Gibbs, A. D. Grauer, J. A. Johnson, R. A. Kowalski,
        S. M. Larson, G. J. Leonard, R. G. Matheny, R. L. Seaman, F. C. Shelly.
        1.5-m reflector + 10K CCD.
    
    Orbital elements:
    2017 FG1                                                 Earth MOID = 0.0465 AU
    Epoch 2017 Feb. 16.0 TT = JDT 2457800.5                 MPC
    M  72.97067              (2000.0)            P               Q
    n   1.09336067     Peri.   48.21193     +0.70521709     -0.70879112
    a   0.9331692      Node   356.78461     +0.52804693     +0.54094918
    e   0.2723703      Incl.   17.48521     +0.47311235     +0.45275726
    P   0.90           H   25.6           G   0.15           U   7
    Residuals in seconds of arc
    170318 G96  0.7+  0.1-    170318 474  0.1+  0.1+    170319 F51  0.1+  0.2+
    170318 G96  0.1-  0.2-    170318 474  0.5-  0.3+    170319 F51  0.2-  0.1-
    170318 G96  0.2+  0.0     170318 474  0.2-  0.1-    170319 F51  0.2-  0.2-
    170318 G96  0.2+  0.4-    170318 474  0.5-  0.2-    170319 F51  0.2+  0.1+
    170318 G96  0.3-  0.1+    170319 G96  0.5+  0.1+    170320 G96  0.1-  0.1+
    170318 G96  0.0   0.4+    170319 G96  0.1+  0.2-    170320 G96  0.1+  0.1-
    170318 G96  0.0   0.0     170319 G96  0.3+  0.2+    170320 G96  0.1-  0.1-
    170318 G96  0.0   0.2+    170319 G96  0.1+  0.4-
    
    Ephemeris:
    2017 FG1                 a,e,i = 0.93, 0.27, 17                  q = 0.6790
    Date    TT    R. A. (2000) Decl.     Delta      r     Elong.  Phase     V
    2017 02 18    18 48 21.0 +33 20 39   0.1448  0.9365    65.1   106.9    25.2
    ...
    2017 03 05    16 33 22.0 +33 01 49   0.06909 1.0054    99.4    76.7    22.5
    ...
    2017 03 13    13 24 03.7 +15 47 15   0.05147 1.0386   149.6    29.0    20.5
    ...
    2017 03 19    11 26 24.6 -03 19 09   0.06658 1.0615   172.1     7.4    20.4
    2017 03 20    11 13 15.7 -05 31 28   0.07092 1.0652   167.5    11.7    20.7
    2017 03 21    11 01 37.7 -07 26 51   0.07559 1.0688   163.4    15.4    21.0
    ...
    2017 03 27    10 15 02.0 -14 45 13   0.1082  1.0893   146.1    30.7    22.3
    ...
    2017 04 04    09 47 19.0 -18 52 28   0.1578  1.1138   133.1    41.0    23.4
    ...
    2017 04 19    09 35 04.3 -21 40 24   0.2564  1.1505   118.9    49.8    24.8
    
    A. U. Tomatic                (C) Copyright 2017 MPC           M.P.E.C. 2017-F39
    

    Read MPEC 2017-F38 Read MPEC 2017-F40


    MPEC number:

    Enter an MPEC number in one of the following forms:

    • 1997-B01 (the full form)
    • J97B01 (the packed version of the full form)
    • B01 (the abbreviated form)